Location: Bjelajci
(45.0103°N, 16.1758°E)
Time: 09:33:09
(UTC+00:00)

Cosmos 1602 - Pass Details

Date: 14 July 2020
Orbit: 515 x 533 km, 82.5° (Epoch: 07 August)

Event Time Altitude Azimuth Distance (km) Brightness Sun altitude
Exits shadow 00:17:28 69° 253° (WSW) 557 3.6 -21.1°
Maximum altitude 00:17:40 71° 279° (W) 551 3.7 -21.1°
Drops below altitude 10° 00:21:31 10° 4° (N) 1,761 7.5 -20.9°
Sets 00:23:41 0° 7° (N) 2,656 8.7 -20.8°
